ARA225 LOWI-EDDH

Flight info

Callsign ARA225
Flight time 1h 46m
Altitude 38000
Route KOGOL M726 KEMES DCT ABGUS DCT DIRBO/N0421F230 T902 RARUP RARUP6A
Aircraft B737/M-SDE2E3FGHIRWXY/LB1

Departure

Time 2026-04-30 18:20
Airport Innsbruck Airport (LOWI)

Arrival

Time 2026-04-30 20:07
Airport Hamburg Helmut Schmidt Airport (EDDH)
Time Latitude Longitude Altitude Speed Heading
2026-04-30 18:17 47.25777 11.34164 1908 ft 18 kts 260°
2026-04-30 18:18 47.25771 11.34017 1913 ft 13 kts 275°
2026-04-30 18:18 47.25805 11.33898 1906 ft 13 kts 304°
2026-04-30 18:18 47.25855 11.33792 1912 ft 13 kts 304°
2026-04-30 18:18 47.25923 11.33568 1906 ft 32 kts 265°
2026-04-30 18:19 47.25897 11.33257 1912 ft 24 kts 249°
2026-04-30 18:19 47.25840 11.33172 1906 ft 11 kts 253°
2026-04-30 18:19 47.25869 11.33075 1906 ft 10 kts 32°
2026-04-30 18:19 47.25889 11.33166 1907 ft 29 kts 81°
2026-04-30 18:20 47.25966 11.33897 1900 ft 113 kts 81°
2026-04-30 18:20 47.26127 11.35351 2136 ft 158 kts 80°
2026-04-30 18:20 47.26317 11.37432 3390 ft 157 kts 83°
2026-04-30 18:20 47.26449 11.39131 3908 ft 178 kts 81°
2026-04-30 18:21 47.26653 11.41077 4184 ft 205 kts 80°
2026-04-30 18:21 47.26894 11.43246 4410 ft 223 kts 81°
2026-04-30 18:21 47.27100 11.44791 4598 ft 230 kts 75°
2026-04-30 18:21 47.27647 11.47047 4919 ft 238 kts 68°
2026-04-30 18:22 47.28316 11.49292 5345 ft 241 kts 66°
2026-04-30 18:22 47.29671 11.53863 6118 ft 257 kts 67°
2026-04-30 18:22 47.30365 11.56284 6458 ft 268 kts 67°
2026-04-30 18:23 47.31086 11.58817 7091 ft 269 kts 67°
2026-04-30 18:23 47.31816 11.61381 7636 ft 273 kts 66°
2026-04-30 18:23 47.32561 11.63965 8225 ft 275 kts 66°
2026-04-30 18:23 47.33313 11.66573 8806 ft 277 kts 66°
2026-04-30 18:24 47.34832 11.71843 9517 ft 284 kts 66°
2026-04-30 18:24 47.35610 11.74550 9530 ft 286 kts 66°
2026-04-30 18:24 47.36380 11.77240 9531 ft 283 kts 66°
2026-04-30 18:25 47.37145 11.79907 9544 ft 281 kts 66°
2026-04-30 18:25 47.38962 11.84982 10085 ft 281 kts 53°
2026-04-30 18:25 47.40414 11.86916 10399 ft 290 kts 28°
2026-04-30 18:26 47.44511 11.87248 10609 ft 319 kts 338°
2026-04-30 18:26 47.46312 11.85250 10695 ft 334 kts 309°
2026-04-30 18:26 47.47531 11.82276 10781 ft 343 kts 299°
2026-04-30 18:27 47.49704 11.75819 10877 ft 357 kts 298°
2026-04-30 18:27 47.50805 11.72543 10904 ft 362 kts 298°
2026-04-30 18:28 47.53133 11.65806 11509 ft 381 kts 299°
2026-04-30 18:28 47.54371 11.62282 12146 ft 389 kts 300°
2026-04-30 18:28 47.56898 11.55107 13772 ft 397 kts 301°
2026-04-30 18:29 47.58186 11.51449 14450 ft 403 kts 301°
2026-04-30 18:29 47.62984 11.41336 16455 ft 401 kts 332°
2026-04-30 18:30 47.68168 11.38991 17974 ft 391 kts 358°
2026-04-30 18:30 47.73640 11.38355 19150 ft 398 kts 359°
2026-04-30 18:31 47.76410 11.38032 19758 ft 400 kts 359°
2026-04-30 18:31 47.81978 11.37303 20295 ft 402 kts 358°
2026-04-30 18:32 47.87584 11.36568 20336 ft 406 kts 360°
2026-04-30 18:32 47.90420 11.36324 20782 ft 409 kts
2026-04-30 18:32 47.96102 11.35895 22044 ft 409 kts
2026-04-30 18:33 47.98956 11.35668 22531 ft 413 kts
2026-04-30 18:33 48.04735 11.35180 23515 ft 418 kts
2026-04-30 18:33 48.07651 11.34888 23985 ft 422 kts 359°
2026-04-30 18:34 48.10536 11.34397 24369 ft 425 kts 357°
2026-04-30 18:34 48.16428 11.33170 25148 ft 430 kts 356°
2026-04-30 18:34 48.19405 11.32555 25510 ft 432 kts 357°
2026-04-30 18:35 48.22398 11.31960 25872 ft 434 kts 357°
2026-04-30 18:35 48.25400 11.31374 26220 ft 436 kts 357°
2026-04-30 18:35 48.28422 11.30816 26563 ft 438 kts 358°
2026-04-30 18:36 48.34511 11.29870 27208 ft 442 kts 359°
2026-04-30 18:36 48.37576 11.29412 27519 ft 443 kts 359°
2026-04-30 18:36 48.43701 11.28471 28401 ft 441 kts 359°
2026-04-30 18:37 48.46704 11.27999 28894 ft 438 kts 359°
2026-04-30 18:37 48.49726 11.27522 29416 ft 437 kts 360°
2026-04-30 18:37 48.52749 11.27044 29861 ft 436 kts 360°
2026-04-30 18:37 48.55764 11.26568 30333 ft 435 kts 360°
2026-04-30 18:38 48.58773 11.26091 30757 ft 433 kts 360°
2026-04-30 18:38 48.61765 11.25617 31175 ft 431 kts 360°
2026-04-30 18:38 48.64751 11.25144 31325 ft 432 kts 360°
2026-04-30 18:39 48.70759 11.24166 31700 ft 434 kts 359°
2026-04-30 18:39 48.73751 11.23671 32117 ft 431 kts 359°
2026-04-30 18:39 48.76720 11.23179 32564 ft 428 kts 359°
2026-04-30 18:39 48.79670 11.22693 33009 ft 425 kts 359°
2026-04-30 18:40 48.82609 11.22210 33388 ft 424 kts 359°
2026-04-30 18:40 48.85535 11.21832 33707 ft 421 kts
2026-04-30 18:40 48.88461 11.21778 34026 ft 419 kts
2026-04-30 18:40 48.91374 11.21818 34369 ft 418 kts
2026-04-30 18:41 48.94272 11.21879 34667 ft 416 kts
2026-04-30 18:41 48.97169 11.21933 34929 ft 416 kts
2026-04-30 18:41 49.00072 11.21973 35182 ft 416 kts
2026-04-30 18:41 49.02967 11.21999 35442 ft 416 kts
2026-04-30 18:42 49.05858 11.22017 35718 ft 415 kts
2026-04-30 18:42 49.11618 11.22047 36215 ft 414 kts
2026-04-30 18:42 49.14498 11.22062 36472 ft 413 kts
2026-04-30 18:45 49.43144 11.21467 38360 ft 412 kts
2026-04-30 18:45 49.45969 11.21260 38371 ft 412 kts
2026-04-30 18:46 49.51682 11.20870 38377 ft 411 kts
2026-04-30 18:46 49.57394 11.20502 38372 ft 411 kts
2026-04-30 18:47 49.63110 11.20140 38378 ft 411 kts
2026-04-30 18:47 49.68831 11.19778 38370 ft 411 kts
2026-04-30 18:48 49.74552 11.19416 38404 ft 411 kts
2026-04-30 18:48 49.80273 11.19051 38401 ft 412 kts
2026-04-30 18:49 49.86002 11.18686 38407 ft 412 kts
2026-04-30 18:49 49.91734 11.18319 38406 ft 412 kts
2026-04-30 18:50 49.97469 11.17952 38412 ft 412 kts
2026-04-30 18:50 50.03210 11.17583 38413 ft 413 kts
2026-04-30 18:51 50.08949 11.17213 38409 ft 413 kts
2026-04-30 18:51 50.14694 11.16842 38415 ft 413 kts
2026-04-30 18:52 50.20444 11.16470 38412 ft 413 kts
2026-04-30 18:52 50.26149 11.16099 38419 ft 413 kts
2026-04-30 18:53 50.31893 11.15726 38424 ft 413 kts
2026-04-30 18:53 50.37632 11.15351 38421 ft 413 kts
2026-04-30 18:54 50.43377 11.14976 38438 ft 413 kts
2026-04-30 18:54 50.49123 11.14600 38421 ft 414 kts
2026-04-30 18:55 50.54875 11.14222 38433 ft 414 kts
2026-04-30 18:55 50.63506 11.13653 38431 ft 414 kts
2026-04-30 18:56 50.72151 11.13081 38435 ft 414 kts
2026-04-30 18:57 50.80796 11.12507 38431 ft 414 kts
2026-04-30 18:57 50.86557 11.12124 38426 ft 414 kts
2026-04-30 18:58 50.95168 11.11549 38425 ft 415 kts
2026-04-30 18:59 51.03816 11.10969 38435 ft 415 kts
2026-04-30 19:00 51.15361 11.10192 38442 ft 415 kts
2026-04-30 19:01 51.26930 11.09409 38440 ft 416 kts
2026-04-30 19:02 51.35605 11.08819 38449 ft 416 kts
2026-04-30 19:03 51.47151 11.08031 38440 ft 417 kts
2026-04-30 19:04 51.58795 11.07232 38443 ft 418 kts
2026-04-30 19:05 51.70387 11.06432 38442 ft 418 kts
2026-04-30 19:06 51.81087 11.05691 38436 ft 419 kts 360°
2026-04-30 19:06 51.89832 11.04767 38441 ft 421 kts 355°
2026-04-30 19:07 51.98562 11.02845 38438 ft 422 kts 354°
2026-04-30 19:08 52.10179 11.00299 38438 ft 422 kts 355°
2026-04-30 19:09 52.18928 10.98422 38437 ft 423 kts 355°
2026-04-30 19:09 52.24771 10.97166 38257 ft 426 kts 354°
2026-04-30 19:10 52.30652 10.95897 37695 ft 425 kts 354°
2026-04-30 19:10 52.36525 10.94625 37160 ft 427 kts 354°
2026-04-30 19:11 52.39475 10.93986 36905 ft 428 kts 354°
2026-04-30 19:11 52.45476 10.92685 35717 ft 440 kts 354°
2026-04-30 19:11 52.48509 10.92024 35002 ft 439 kts 354°
2026-04-30 19:12 52.51534 10.91363 34259 ft 438 kts 354°
2026-04-30 19:12 52.54554 10.90702 33442 ft 437 kts 354°
2026-04-30 19:12 52.57564 10.90043 32653 ft 435 kts 354°
2026-04-30 19:13 52.63545 10.88732 31139 ft 431 kts 354°
2026-04-30 19:13 52.69382 10.87447 29515 ft 412 kts 354°
2026-04-30 19:13 52.72187 10.86828 28689 ft 402 kts 355°
2026-04-30 19:14 52.74909 10.86228 27885 ft 393 kts 355°
2026-04-30 19:14 52.77597 10.85636 27099 ft 385 kts 355°
2026-04-30 19:14 52.80227 10.85055 26346 ft 378 kts 355°
2026-04-30 19:14 52.82805 10.84484 25844 ft 365 kts 355°
2026-04-30 19:15 52.85224 10.83963 25690 ft 345 kts 356°
2026-04-30 19:15 52.89892 10.83016 24231 ft 347 kts 356°
2026-04-30 19:15 52.92307 10.82539 23828 ft 348 kts 356°
2026-04-30 19:16 52.94782 10.82048 23316 ft 372 kts 356°
2026-04-30 19:16 52.97451 10.81521 22843 ft 400 kts 356°
2026-04-30 19:16 53.03259 10.80351 21781 ft 429 kts 356°
2026-04-30 19:17 53.06209 10.79741 21249 ft 427 kts 356°
2026-04-30 19:17 53.12055 10.78528 20223 ft 421 kts 356°
2026-04-30 19:17 53.14957 10.77928 19724 ft 419 kts 356°
2026-04-30 19:18 53.19797 10.76932 18887 ft 417 kts 356°
2026-04-30 19:18 53.23589 10.76150 18139 ft 406 kts 356°
2026-04-30 19:18 53.26327 10.75579 17626 ft 384 kts 356°
2026-04-30 19:19 53.28898 10.75041 17183 ft 362 kts 356°
2026-04-30 19:19 53.31338 10.74533 16757 ft 344 kts 356°
2026-04-30 19:19 53.35833 10.74444 15981 ft 306 kts 19°
2026-04-30 19:20 53.37801 10.75557 15627 ft 292 kts 23°
2026-04-30 19:20 53.39653 10.76721 15403 ft 277 kts 24°
2026-04-30 19:20 53.43110 10.78911 14949 ft 257 kts 24°
2026-04-30 19:21 53.44777 10.79966 14737 ft 256 kts 24°
2026-04-30 19:21 53.48116 10.82077 14305 ft 256 kts 24°
2026-04-30 19:22 53.51448 10.84181 13890 ft 254 kts 24°
2026-04-30 19:22 53.56324 10.87258 13500 ft 247 kts 24°
2026-04-30 19:23 53.61298 10.90442 12434 ft 258 kts 24°
2026-04-30 19:24 53.64622 10.92596 11745 ft 257 kts 24°
2026-04-30 19:24 53.66281 10.93678 11492 ft 253 kts 24°
2026-04-30 19:24 53.69516 10.95630 11432 ft 248 kts
2026-04-30 19:25 53.74427 10.92060 11454 ft 265 kts 334°
2026-04-30 19:26 53.77636 10.88955 11450 ft 266 kts 334°
2026-04-30 19:26 53.80850 10.85839 11449 ft 266 kts 334°
2026-04-30 19:26 53.82454 10.84283 11449 ft 266 kts 334°
2026-04-30 19:27 53.85625 10.81083 11435 ft 268 kts 321°
2026-04-30 19:27 53.86563 10.75209 11446 ft 276 kts 250°
2026-04-30 19:28 53.85643 10.72386 11479 ft 275 kts 235°
2026-04-30 19:28 53.83466 10.67005 11463 ft 281 kts 234°
2026-04-30 19:29 53.81250 10.61596 11451 ft 278 kts 234°
2026-04-30 19:29 53.80152 10.58917 11449 ft 277 kts 234°
2026-04-30 19:30 53.76879 10.50932 11444 ft 274 kts 234°
2026-04-30 19:30 53.74640 10.45476 11281 ft 285 kts 234°
2026-04-30 19:31 53.72384 10.40007 10862 ft 277 kts 232°
2026-04-30 19:31 53.71217 10.37493 10826 ft 267 kts 230°
2026-04-30 19:31 53.68854 10.32592 10422 ft 282 kts 229°
2026-04-30 19:32 53.67599 10.30011 9932 ft 287 kts 229°
2026-04-30 19:32 53.66321 10.27388 9422 ft 292 kts 229°
2026-04-30 19:32 53.65031 10.24736 8919 ft 295 kts 229°
2026-04-30 19:32 53.63723 10.22046 8420 ft 298 kts 229°
2026-04-30 19:33 53.62424 10.19367 7934 ft 301 kts 229°
2026-04-30 19:33 53.61115 10.16665 7450 ft 300 kts 229°
2026-04-30 19:33 53.59812 10.13964 6967 ft 294 kts 229°
2026-04-30 19:33 53.58557 10.11353 6737 ft 279 kts 229°
2026-04-30 19:34 53.57368 10.08870 6485 ft 267 kts 229°
2026-04-30 19:34 53.56229 10.06483 6236 ft 257 kts 229°
2026-04-30 19:34 53.54029 10.01874 5785 ft 249 kts 229°
2026-04-30 19:35 53.52953 9.99623 5557 ft 246 kts 229°
2026-04-30 19:35 53.51887 9.97397 5333 ft 243 kts 229°
2026-04-30 19:35 53.50833 9.95195 5110 ft 241 kts 229°
2026-04-30 19:35 53.49785 9.93008 5026 ft 239 kts 229°
2026-04-30 19:36 53.48741 9.90835 5002 ft 239 kts 229°
2026-04-30 19:36 53.47692 9.88648 5005 ft 242 kts 229°
2026-04-30 19:36 53.45556 9.84208 5004 ft 245 kts 229°
2026-04-30 19:37 53.44483 9.81978 4994 ft 246 kts 229°
2026-04-30 19:37 53.43407 9.79741 4992 ft 246 kts 229°
2026-04-30 19:37 53.42331 9.77504 4994 ft 246 kts 229°
2026-04-30 19:37 53.41255 9.75261 4994 ft 246 kts 229°
2026-04-30 19:38 53.40199 9.73060 4994 ft 246 kts 229°
2026-04-30 19:38 53.39131 9.70832 4992 ft 245 kts 229°
2026-04-30 19:38 53.38065 9.68609 4983 ft 245 kts 229°
2026-04-30 19:38 53.37001 9.66387 4985 ft 244 kts 229°
2026-04-30 19:39 53.35942 9.64173 4983 ft 243 kts 229°
2026-04-30 19:39 53.34886 9.61960 4991 ft 243 kts 229°
2026-04-30 19:39 53.33836 9.59756 4981 ft 242 kts 229°
2026-04-30 19:39 53.32785 9.57555 4993 ft 242 kts 229°
2026-04-30 19:40 53.31738 9.55357 4989 ft 242 kts 229°
2026-04-30 19:40 53.30688 9.53155 4986 ft 241 kts 229°
2026-04-30 19:40 53.29643 9.50960 4989 ft 241 kts 229°
2026-04-30 19:40 53.28597 9.48763 4990 ft 242 kts 229°
2026-04-30 19:41 53.27850 9.46262 4970 ft 245 kts 262°
2026-04-30 19:41 53.28134 9.43504 4981 ft 245 kts 301°
2026-04-30 19:41 53.29344 9.41618 4996 ft 239 kts 340°
2026-04-30 19:41 53.30949 9.41377 5005 ft 233 kts 17°
2026-04-30 19:42 53.32496 9.42251 4999 ft 237 kts 23°
2026-04-30 19:42 53.34046 9.43211 4990 ft 237 kts 24°
2026-04-30 19:42 53.35495 9.44376 4977 ft 232 kts 37°
2026-04-30 19:42 53.36720 9.46088 4993 ft 228 kts 46°
2026-04-30 19:43 53.37846 9.47948 4990 ft 226 kts 52°
2026-04-30 19:43 53.38842 9.49965 4991 ft 225 kts 53°
2026-04-30 19:43 53.39815 9.52007 4983 ft 223 kts 54°
2026-04-30 19:44 53.41681 9.55873 5002 ft 207 kts 53°
2026-04-30 19:44 53.42592 9.57715 5006 ft 204 kts 53°
2026-04-30 19:44 53.43503 9.59547 4999 ft 205 kts 53°
2026-04-30 19:44 53.44416 9.61386 4985 ft 203 kts 52°
2026-04-30 19:45 53.45302 9.63159 4970 ft 193 kts 53°
2026-04-30 19:45 53.46140 9.64834 4861 ft 184 kts 53°
2026-04-30 19:45 53.46963 9.66481 4505 ft 184 kts 52°
2026-04-30 19:45 53.47789 9.68135 4135 ft 185 kts 52°
2026-04-30 19:46 53.48616 9.69792 3790 ft 185 kts 52°
2026-04-30 19:46 53.49432 9.71426 3537 ft 186 kts 52°
2026-04-30 19:46 53.50287 9.73141 3302 ft 194 kts 52°
2026-04-30 19:46 53.51134 9.74837 3163 ft 186 kts 52°
2026-04-30 19:47 53.51956 9.76485 3007 ft 182 kts 52°
2026-04-30 19:47 53.52508 9.77594 2861 ft 184 kts 52°
2026-04-30 19:47 53.53597 9.79779 2544 ft 183 kts 52°
2026-04-30 19:47 53.54410 9.81412 2308 ft 182 kts 52°
2026-04-30 19:48 53.55216 9.83034 2092 ft 179 kts 52°
2026-04-30 19:48 53.56007 9.84624 1856 ft 177 kts 52°
2026-04-30 19:48 53.56793 9.86208 1617 ft 172 kts 52°
2026-04-30 19:48 53.57496 9.87619 1541 ft 142 kts 52°
2026-04-30 19:49 53.58091 9.88815 1280 ft 129 kts 52°
2026-04-30 19:49 53.59330 9.91212 1452 ft 152 kts 51°
2026-04-30 19:49 53.60085 9.92735 1978 ft 193 kts 52°
2026-04-30 19:50 53.60945 9.94507 3012 ft 201 kts 51°
2026-04-30 19:50 53.61974 9.96512 3144 ft 236 kts 51°
2026-04-30 19:50 53.62972 9.98574 3324 ft 227 kts 52°
2026-04-30 19:50 53.63985 10.00678 3226 ft 250 kts 51°
2026-04-30 19:51 53.65187 10.03197 3144 ft 297 kts 53°
2026-04-30 19:51 53.66460 10.05942 3216 ft 285 kts 52°
2026-04-30 19:51 53.67659 10.08431 3293 ft 257 kts 51°
2026-04-30 19:51 53.68709 10.10582 3584 ft 227 kts 52°
2026-04-30 19:52 53.69674 10.12776 2833 ft 241 kts 56°
2026-04-30 19:52 53.70327 10.14297 2768 ft 240 kts 52°
2026-04-30 19:52 53.71355 10.16490 2947 ft 226 kts 52°
2026-04-30 19:52 53.72312 10.18530 2848 ft 227 kts 52°
2026-04-30 19:53 53.73065 10.20916 2390 ft 241 kts 84°
2026-04-30 19:53 53.72653 10.23570 3222 ft 237 kts 125°
2026-04-30 19:53 53.71375 10.25201 4070 ft 236 kts 162°
2026-04-30 19:53 53.69756 10.25233 4678 ft 239 kts 195°
2026-04-30 19:54 53.68245 10.24047 4995 ft 241 kts 205°
2026-04-30 19:54 53.66759 10.22713 4975 ft 240 kts 206°
2026-04-30 19:54 53.65301 10.21368 4987 ft 240 kts 211°
2026-04-30 19:54 53.64090 10.19430 5008 ft 241 kts 227°
2026-04-30 19:55 53.63010 10.17251 4997 ft 242 kts 229°
2026-04-30 19:55 53.61939 10.15049 5003 ft 243 kts 229°
2026-04-30 19:55 53.60872 10.12843 5001 ft 243 kts 229°
2026-04-30 19:55 53.59802 10.10627 5000 ft 244 kts 229°
2026-04-30 19:56 53.58732 10.08411 4998 ft 244 kts 229°
2026-04-30 19:56 53.57660 10.06188 4999 ft 245 kts 229°
2026-04-30 19:56 53.56587 10.03967 4992 ft 245 kts 229°
2026-04-30 19:56 53.55513 10.01740 4995 ft 245 kts 229°
2026-04-30 19:57 53.54439 9.99513 4992 ft 245 kts 229°
2026-04-30 19:57 53.53366 9.97288 4996 ft 245 kts 229°
2026-04-30 19:57 53.52295 9.95066 4993 ft 244 kts 229°
2026-04-30 19:57 53.51226 9.92846 4996 ft 244 kts 229°
2026-04-30 19:58 53.50159 9.90628 4995 ft 244 kts 229°
2026-04-30 19:58 53.49094 9.88413 4993 ft 244 kts 229°
2026-04-30 19:58 53.48028 9.86196 4997 ft 243 kts 229°
2026-04-30 19:58 53.46967 9.83987 4992 ft 243 kts 229°
2026-04-30 19:59 53.45905 9.81776 4996 ft 243 kts 229°
2026-04-30 19:59 53.44845 9.79565 4996 ft 243 kts 229°
2026-04-30 19:59 53.42727 9.75143 4991 ft 243 kts 229°
2026-04-30 20:00 53.41671 9.72933 5016 ft 243 kts 231°
2026-04-30 20:00 53.40971 9.70343 4892 ft 250 kts 260°
2026-04-30 20:00 53.41203 9.67485 4656 ft 250 kts 298°
2026-04-30 20:00 53.42359 9.65490 4433 ft 242 kts 336°
2026-04-30 20:01 53.45350 9.66132 4045 ft 214 kts 32°
2026-04-30 20:01 53.46598 9.67377 3831 ft 203 kts 32°
2026-04-30 20:01 53.47821 9.68447 3609 ft 193 kts 29°
2026-04-30 20:02 53.49541 9.71571 3171 ft 182 kts 52°
2026-04-30 20:02 53.50356 9.73233 3076 ft 185 kts 52°
2026-04-30 20:03 53.52002 9.76557 3013 ft 184 kts 52°
2026-04-30 20:03 53.52819 9.78205 3016 ft 184 kts 52°
2026-04-30 20:03 53.53640 9.79858 3022 ft 184 kts 52°
2026-04-30 20:03 53.54476 9.81542 2706 ft 192 kts 52°
2026-04-30 20:04 53.55294 9.83187 2370 ft 180 kts 52°
2026-04-30 20:04 53.56095 9.84801 1886 ft 178 kts 52°
2026-04-30 20:04 53.56880 9.86381 1646 ft 175 kts 52°
2026-04-30 20:05 53.58321 9.89282 1170 ft 147 kts 52°
2026-04-30 20:05 53.58932 9.90509 1054 ft 133 kts 52°
2026-04-30 20:05 53.60098 9.92901 700 ft 140 kts 51°
2026-04-30 20:06 53.60713 9.94159 513 ft 136 kts 51°
2026-04-30 20:06 53.61310 9.95344 291 ft 131 kts 51°
2026-04-30 20:06 53.61890 9.96514 116 ft 129 kts 51°
2026-04-30 20:06 53.62439 9.97619 46 ft 107 kts 50°
2026-04-30 20:07 53.62785 9.98320 49 ft 56 kts 51°
2026-04-30 20:07 53.63022 9.98791 48 ft 45 kts 49°
2026-04-30 20:07 53.63088 9.99200 49 ft 0 kts 98°
2026-04-30 20:08 53.63086 9.99215 49 ft 8 kts 98°
2026-04-30 20:09 53.63077 9.99339 49 ft 8 kts 87°
2026-04-30 20:09 53.63085 9.99364 46 ft 0 kts 54°
2026-04-30 20:11 53.63085 9.99365 46 ft 2 kts 54°
2026-04-30 20:11 53.63139 9.99499 49 ft 21 kts 56°
2026-04-30 20:11 53.63219 9.99662 49 ft 10 kts 49°
2026-04-30 20:12 53.63202 9.99780 49 ft 16 kts 153°
2026-04-30 20:12 53.63124 9.99887 46 ft 13 kts 94°
2026-04-30 20:12 53.63148 9.99966 50 ft 4 kts 51°
2026-04-30 20:13 53.63165 10.00001 50 ft 4 kts 51°
2026-04-30 20:13 53.63181 10.00036 50 ft 4 kts 62°
2026-04-30 20:13 53.63177 10.00062 50 ft 1 kts 134°
2026-04-30 20:13 53.63172 10.00070 50 ft 1 kts 139°
2026-04-30 20:14 53.63164 10.00081 48 ft 3 kts 139°
2026-04-30 20:14 53.63149 10.00102 50 ft 0 kts 140°
2026-04-30 20:14 53.63140 10.00113 50 ft 2 kts 141°
2026-04-30 20:14 53.63136 10.00118 50 ft 0 kts 141°